Regional Weather Roundup
Issued by NWS

Home | Current Version | Previous Version | Text Only | Print | Product List | Glossary On
Versions: 1 2 3 4 5 6 7 8 9 10 11 12 13 14 15 16 17 18 19 20 21 22 23 24 25 26 27 28 29 30 31 32 33 34 35 36 37 38 39 40 41 42 43 44 45 46 47 48 49 50
000
ASUS43 KMKX 300000
RWRWI

WISCONSIN REGIONAL WEATHER ROUNDUP
NATIONAL WEATHER SERVICE MILWAUKEE/SULLIVAN WI
700 PM CDT MON JUN 29 2015

NOTE: "FAIR" INDICATES FEW OR NO CLOUDS BELOW 12,000 FEET WITH NO
SIGNIFICANT WEATHER AND/OR OBSTRUCTIONS TO VISIBILITY.

WIZ001-002-006>008-014>016-023>028-300100-
NORTHWEST WISCONSIN

CITY           SKY/WX    TMP DP  RH WIND       PRES   REMARKS
SUPERIOR ARPT  MOSUNNY   72  65  79 CALM      29.76S
ASHLAND        MOSUNNY   72  64  76 NE6       29.77R
6HR MIN TEMP:  64; 6HR MAX TEMP:  75;

HAYWARD        MOSUNNY   69  59  70 CALM      29.79S
6HR MIN TEMP:  60; 6HR MAX TEMP:  72; 6HR PCP:  0.28;

SIREN          PTSUNNY   65  60  82 CALM      29.78F
CUMBERLAND     CLOUDY    63  59  88 S3        29.80R
RICE LAKE      CLOUDY    64  60  87 SW6       29.81R
CHETEK         CLOUDY    63  61  93 CALM      29.79R
LADYSMITH      PTSUNNY   64  59  85 CALM      29.80S
EAU CLAIRE     NOT AVBL
MENOMONIE      TSTM      61  61 100 S6        29.81S
NEW RICHMOND   LGT RAIN  60  59  95 S8        29.78F
OSCEOLA        CLOUDY    62  62 100 SW5       29.82F
$$

WIZ003>005-009-010-017-018-300100-
NORTH CENTRAL WISCONSIN

CITY           SKY/WX    TMP DP  RH WIND       PRES   REMARKS
MANITOWISH WTR PTSUNNY   65  63  93 W6        29.78R
ARBOR VITAE    CLOUDY    64  61  90 CALM      29.78R
WOODRUFF       CLOUDY    64  61  90 CALM      29.78R
RHINELANDER    CLOUDY    64  59  83 CALM      29.80R
6HR MIN TEMP:  62; 6HR MAX TEMP:  79; 6HR PCP:  0.12;

EAGLE RIVER    CLOUDY    64  56  76 CALM      29.78S
LAND O LAKES   CLOUDY    64  61  91 CALM      29.79S
PHILLIPS       PTSUNNY   63  60  90 W3        29.78F
TOMAHAWK       CLOUDY    60  58  93 W5        29.80R
MEDFORD        CLOUDY    61  58  90 W5        29.78F
MERRILL        CLOUDY    62  60  94 W6        29.80R
$$

WIZ029-030-035-036-043>047-300100-
CENTRAL WISCONSIN

CITY           SKY/WX    TMP DP  RH WIND       PRES   REMARKS
WAUSAU         CLOUDY    63  59  87 NW3       29.79R
6HR MIN TEMP:  62; 6HR MAX TEMP:  79; 6HR PCP:  0.09;

MOSINEE        NOT AVBL
MARSHFIELD     CLOUDY    62  57  83 W6        29.78F HAZE
6HR MIN TEMP:  61; 6HR MAX TEMP:  78; 6HR PCP:  0.07;

STEVENS POINT  CLOUDY    60  58  94 E3        29.80R
WAUPACA        LGT RAIN  68  65  90 NW3       29.78R
WAUTOMA        NOT AVBL
WISC RAPIDS    LGT RAIN  62  57  83 W12       29.79F
6HR MIN TEMP:  62; 6HR MAX TEMP:  79; 6HR PCP:  0.24;

CAMP DOUGLAS   LGT RAIN  63  63 100 W5        29.81F FOG
$$

WIZ011>013-019>022-031-037>040-048>050-300100-
NORTHEAST WISCONSIN

CITY           SKY/WX    TMP DP  RH WIND       PRES   REMARKS
ANTIGO         LGT RAIN  62  60  94 W3        29.79R
SHAWANO        CLOUDY    69  64  82 S5        29.77S
OCONTO         PTSUNNY   69  66  89 S3        29.75S
STURGEON BAY   MOSUNNY   70  59  68 S3        29.80R
6HR MIN TEMP:  66; 6HR MAX TEMP:  75;

GREEN BAY      CLOUDY    69  65  86 SW3       29.76S
6HR MIN TEMP:  67; 6HR MAX TEMP:  80; 6HR PCP:  0.27;

MANITOWOC      NOT AVBL
APPLETON       PTSUNNY   72  61  68 S7        29.77S
CLINTONVILLE   LGT RAIN N/A N/A N/A W7        29.78R
OSHKOSH        PTSUNNY   73  62  68 S6        29.77R
6HR MIN TEMP:  70; 6HR MAX TEMP:  77; 6HR PCP:  0.01;

$$

WIZ032>034-041-042-053>061-300100-
SOUTHWEST WISCONSIN

CITY           SKY/WX    TMP DP  RH WIND       PRES   REMARKS
LA CROSSE      TSTM      66  62  87 VRB6      29.82R
6HR MIN TEMP:  66; 6HR MAX TEMP:  83; 6HR PCP:  0.46;

SPARTA         TSTM      63  59  89 N8        29.85R
VIROQUA        CLOUDY    67  63  85 N10G21    29.83R
BOSCOBEL       LGT RAIN  73  69  87 CALM      29.78S FOG
6HR MIN TEMP:  73; 6HR MAX TEMP:  83; 6HR PCP:  0.02;

PRAIRIE DU CHI PTSUNNY   77  61  57 CALM      29.77F
PLATTEVILLE    MOSUNNY   77  61  57 NW8       29.80S
$$

WIZ056-057-062-063-064-067-068-300100-
SOUTH CENTRAL WISCONSIN

CITY           SKY/WX    TMP DP  RH WIND       PRES   REMARKS
REEDSBURG      PTSUNNY   67  58  72 N21G37    29.81R
BARABOO/DELLS  PTSUNNY   74  59  59 N21G28    29.80R
LONE ROCK      NOT AVBL
MINERAL POINT  MOSUNNY   77  61  57 NW6       29.80S
MADISON        PTSUNNY   75  62  64 CALM      29.78S
6HR MIN TEMP:  72; 6HR MAX TEMP:  77;

MIDDLETON      MOSUNNY   76  63  63 CALM      29.79S
WATERTOWN      MOSUNNY   72  64  77 CALM      29.78S
MONROE         PTSUNNY   72  68  88 CALM      29.79S
JANESVILLE     MOSUNNY   73  61  64 VRB3      29.78S
$$

WIZ051-052-058>065-066-070>072-300100-
SOUTHEAST WISCONSIN

CITY           SKY/WX    TMP DP  RH WIND       PRES   REMARKS
MILWAUKEE      MOSUNNY   70  61  73 SE7       29.79F
6HR MIN TEMP:  67; 6HR MAX TEMP:  73;

WAUKESHA       MOSUNNY   70  61  73 SW6       29.81S
MILWAUKEE/TIMM NOT AVBL
RACINE         SUNNY     68  60  75 S7        29.81F
6HR MIN TEMP:  68; 6HR MAX TEMP:  72;

BURLINGTON     MOSUNNY   71  62  73 SE7       29.79S
KENOSHA        MOSUNNY   71  61  70 S6        29.79F
6HR MIN TEMP:  68; 6HR MAX TEMP:  73; 6HR PCP: TRACE;

FOND DU LAC    PTSUNNY   72  64  76 S5        29.78S
6HR MIN TEMP:  66; 6HR MAX TEMP:  76; 6HR PCP:  0.10;

SHEBOYGAN      PTSUNNY   70  58  65 S8        29.79R
6HR MIN TEMP:  70; 6HR MAX TEMP:  76;

WEST BEND      PTSUNNY   68  61  77 SE5       29.79S
JUNEAU         PTSUNNY   71  62  75 S3        29.79S
$$

LSZ147-162-300100-
LAKE SUPERIOR

STATION/POSITION TIME  TEMP    WIND        PRES    WAVE
                       AIR SEA DIR/SP/G            HT/PER
                 (UTC) (F)     (DEG/KT/KT) (MB)    (FT/S)
W MID LAKE BUOY  2250   51 39  300/  4/  4 1007.5F   0
DEVILS ISLAND    2300   64     250/  5/  6 1007.6R
SAXON HARBOR     2300   71        CALM     1007.8R
$$

LMZ867-665-643>646-300100-
LAKE MICHIGAN

STATION/POSITION TIME  TEMP    WIND        PRES    WAVE
                       AIR SEA DIR/SP/G            HT/PER
                 (UTC) (F)     (DEG/KT/KT) (MB)    (FT/S)
CHAMBERS ISLAND  2300   73     160/  5/  9 1007.1F
S GREEN BAY BUOY 2200   75 72  180/ 12/ 16 1008.9F
N MID LAKE BUOY  2250   59 52  200/  6/  8 1007.9F   1
NORTHPORT PIER   2300   72     160/  5/ 10 1007.5
ALGOMA LAKESHORE 2210          210/ 11/ 13   N/A
KEWAUNEE LAKESHO 2300   62     190/ 10/ 12 1007.6F
SHEBOYGAN LAKESH 2300   61     170/ 14/ 15 1008.8F
PORT WASHINGTON  2340   66     190/  4/  7 1009.5F
ATWATER BUOY     2300   63 61  150/  8/ 10 1010.3F
MILWAUKEE LAKESH 2300   62     140/ 10/ 11   N/A
KENOSHA   LAKESH 2300   65     170/  5/  6 1008.8S
$$

TC  - TEMPERATURE IN CELSIUS
VSB - VISIBILITY IN STATUTE MILES
WCI - WIND CHILL INDEX
HX  - HEAT INDEX




USA.gov is the U.S. government's official web portal to all federal, state and local government web resources and services.